カタログに戻る

STARLINK-36794

運用中通信VLEO
NORAD 68955·PAYLOAD·🇺🇸 United States

打ち上げ May 1, 2026 から Cape Canaveral Space Force Station

Loading…

次のパス (今後24時間)

TLE

最新Source: CelesTrak SupGP

元期: Sep 15, 2026, 04:25 UTC

1 68955C 26099E   26258.18451389 -.00019264  00000+0 -56924-3 0  2581
2 68955  53.1573 100.8368 0001213  86.2962 343.5692 15.34396622    19

AllMySatでSTARLINK-36794をリアルタイム追跡

Download on the App Store